TimeCDT,TemperatureF,Dew PointF,Humidity,Sea Level PressureIn,VisibilityMPH,Wind Direction,Wind SpeedMPH,Gust SpeedMPH,PrecipitationIn,Events,Conditions,WindDirDegrees,DateUTC
12:58 AM,79.2,68.4,69,29.92,10.0,ESE,4.6,-,N/A,,Clear,120,2013-06-14 05:58:00
1:58 AM,76.8,67.8,74,29.92,10.0,SSE,4.6,-,N/A,,Clear,160,2013-06-14 06:58:00
2:58 AM,75.0,67.6,78,29.91,10.0,ESE,5.8,-,N/A,,Clear,110,2013-06-14 07:58:00
3:58 AM,72.7,67.6,84,29.91,10.0,East,2.3,-,N/A,,Clear,100,2013-06-14 08:58:00
4:58 AM,70.9,66.7,87,29.91,10.0,ESE,3.5,-,N/A,,Clear,120,2013-06-14 09:58:00
5:58 AM,69.4,66.7,91,29.91,10.0,SE,3.5,-,N/A,,Clear,130,2013-06-14 10:58:00
6:58 AM,70.9,66.9,87,29.93,10.0,SSE,3.5,-,N/A,,Clear,150,2013-06-14 11:58:00
7:58 AM,77.2,66.0,68,29.94,10.0,SSW,5.8,-,N/A,,Clear,200,2013-06-14 12:58:00
8:58 AM,84.6,65.7,53,29.95,10.0,SW,5.8,-,N/A,,Clear,220,2013-06-14 13:58:00
9:58 AM,87.4,65.5,48,29.95,10.0,SW,8.1,-,N/A,,Clear,230,2013-06-14 14:58:00
10:58 AM,88.5,64.9,45,29.95,10.0,SW,12.7,-,N/A,,Partly Cloudy,220,2013-06-14 15:58:00
11:58 AM,91.9,63.7,39,29.95,10.0,South,16.1,21.9,N/A,,Scattered Clouds,170,2013-06-14 16:58:00
12:49 PM,95.0,62.6,34,29.98,10.0,SE,16.1,23.0,N/A,,Scattered Clouds,140,2013-06-14 17:49:00
12:58 PM,95.2,62.4,34,29.93,10.0,SSE,17.3,23.0,N/A,,Mostly Cloudy,150,2013-06-14 17:58:00
1:58 PM,95.4,60.4,31,29.91,10.0,South,12.7,25.3,N/A,,Scattered Clouds,190,2013-06-14 18:58:00
2:58 PM,95.9,56.8,27,29.90,10.0,SSW,16.1,24.2,N/A,,Mostly Cloudy,200,2013-06-14 19:58:00
3:58 PM,91.6,58.3,33,29.90,10.0,SSW,16.1,-,N/A,,Partly Cloudy,210,2013-06-14 20:58:00
4:58 PM,91.8,58.5,33,29.89,10.0,South,11.5,-,N/A,,Overcast,190,2013-06-14 21:58:00
5:58 PM,91.6,57.9,32,29.88,10.0,SSW,15.0,24.2,N/A,,Overcast,200,2013-06-14 22:58:00
6:58 PM,90.7,56.5,31,29.87,10.0,South,16.1,-,N/A,,Scattered Clouds,190,2013-06-14 23:58:00
7:58 PM,88.7,56.8,34,29.87,10.0,SSW,13.8,-,N/A,,Scattered Clouds,210,2013-06-15 00:58:00
8:58 PM,86.2,56.8,37,29.89,10.0,SW,9.2,-,N/A,,Scattered Clouds,220,2013-06-15 01:58:00
9:58 PM,84.6,58.1,40,29.92,10.0,SW,6.9,-,N/A,,Scattered Clouds,230,2013-06-15 02:58:00
10:58 PM,82.9,59.9,46,29.94,10.0,WSW,6.9,-,N/A,,Scattered Clouds,240,2013-06-15 03:58:00
11:58 PM,82.0,60.3,47,29.94,10.0,WSW,12.7,-,N/A,,Scattered Clouds,240,2013-06-15 04:58:00